• In Romania
  • List of Countries
  • For 7 days
  • Water Temperature
  • Satellite Maps
  • Weather Map
  • Weather Widgets
  • user-avatar
    Login

    Hourly Weather Senkovo

    Today, 20 July, Friday

    Time Temperature Precipitation Wind Pressure Humidity
    00:00 +17°C° 0 mm 2 mps 735 mmHg 98%
    01:00 +17°C° 0 mm 2 mps 734 mmHg 98%
    02:00 +17°C° 0 mm 2 mps 734 mmHg 98%
    03:00 +17°C° 0.1 mm 2 mps 734 mmHg 98%
    04:00 +18°C° 0.1 mm 2 mps 734 mmHg 98%
    05:00 +18°C° 0.1 mm 2 mps 734 mmHg 98%
    06:00 +18°C° 0.3 mm 2 mps 734 mmHg 97%
    07:00 +19°C° 0.3 mm 2 mps 734 mmHg 96%
    08:00 +19°C° 0.3 mm 2 mps 734 mmHg 95%
    09:00 +20°C° 0.2 mm 2 mps 734 mmHg 94%
    10:00 +20°C° 0.2 mm 2 mps 734 mmHg 93%
    11:00 +20°C° 0.2 mm 2 mps 734 mmHg 92%
    12:00 +23°C° 0.2 mm 2 mps 734 mmHg 86%
    13:00 +24°C° 0.2 mm 3 mps 734 mmHg 80%
    14:00 +25°C° 0.2 mm 3 mps 734 mmHg 73%
    15:00 +25°C° 0.5 mm 2 mps 734 mmHg 76%
    16:00 +25°C° 0.5 mm 2 mps 734 mmHg 79%
    17:00 +24°C° 0.5 mm 2 mps 734 mmHg 82%
    18:00 +23°C° 0.2 mm 2 mps 734 mmHg 86%
    19:00 +22°C° 0.2 mm 1 mps 733 mmHg 90%
    20:00 +21°C° 0.2 mm 1 mps 733 mmHg 94%
    21:00 +20°C° 0 mm 1 mps 733 mmHg 95%
    22:00 +20°C° 0 mm 1 mps 733 mmHg 96%
    23:00 +19°C° 0 mm 1 mps 733 mmHg 97%

    Tomorrow, 21 July, Saturday

    Time Temperature Precipitation Wind Pressure Humidity
    00:00 +19°C° 0 mm 1 mps 733 mmHg 97%
    01:00 +17°C° 0 mm 0 mps 733 mmHg 98%
    02:00 +16°C° 0 mm 0 mps 733 mmHg 98%
    03:00 +17°C° 0 mm 0 mps 733 mmHg 98%
    04:00 +17°C° 0 mm 0 mps 734 mmHg 98%
    05:00 +17°C° 0 mm 0 mps 734 mmHg 98%
    06:00 +19°C° 0 mm 0 mps 734 mmHg 93%
    07:00 +20°C° 0 mm 0 mps 734 mmHg 89%
    08:00 +22°C° 0 mm 0 mps 734 mmHg 85%
    09:00 +23°C° 0.1 mm 0 mps 734 mmHg 80%
    10:00 +26°C° 0.1 mm 1 mps 734 mmHg 75%
    11:00 +27°C° 0.1 mm 1 mps 734 mmHg 69%
    12:00 +28°C° 0.4 mm 1 mps 734 mmHg 69%
    13:00 +28°C° 0.4 mm 1 mps 734 mmHg 68%
    14:00 +28°C° 0.4 mm 1 mps 734 mmHg 67%
    15:00 +27°C° 1 mm 1 mps 734 mmHg 74%
    16:00 +26°C° 1 mm 1 mps 734 mmHg 80%
    17:00 +26°C° 1 mm 2 mps 734 mmHg 87%
    18:00 +24°C° 0.6 mm 2 mps 734 mmHg 90%
    19:00 +23°C° 0.6 mm 2 mps 734 mmHg 92%
    20:00 +21°C° 0.6 mm 2 mps 734 mmHg 95%
    21:00 +22°C° 0.2 mm 1 mps 734 mmHg 96%
    22:00 +21°C° 0.2 mm 1 mps 734 mmHg 97%
    23:00 +21°C° 0.2 mm 1 mps 734 mmHg 97%

    Day after tomorrow, 22 July, Sunday

    Time Temperature Precipitation Wind Pressure Humidity
    00:00 +20°C° 0 mm 1 mps 734 mmHg 98%
    01:00 +20°C° 0 mm 1 mps 734 mmHg 98%
    02:00 +20°C° 0 mm 1 mps 734 mmHg 98%
    03:00 +19°C° 0.1 mm 2 mps 734 mmHg 98%
    04:00 +19°C° 0.1 mm 2 mps 734 mmHg 98%
    05:00 +19°C° 0.1 mm 2 mps 734 mmHg 98%
    06:00 +20°C° 0.1 mm 2 mps 734 mmHg 97%
    07:00 +20°C° 0.1 mm 2 mps 734 mmHg 96%
    08:00 +21°C° 0.1 mm 2 mps 734 mmHg 95%
    09:00 +21°C° 0.1 mm 3 mps 734 mmHg 93%
    10:00 +22°C° 0.1 mm 3 mps 734 mmHg 91%
    11:00 +22°C° 0.1 mm 3 mps 734 mmHg 89%
    12:00 +22°C° 0.1 mm 3 mps 734 mmHg 87%
    13:00 +24°C° 0.1 mm 3 mps 734 mmHg 85%
    14:00 +23°C° 0.1 mm 4 mps 734 mmHg 82%
    15:00 +24°C° 0.1 mm 3 mps 734 mmHg 83%
    16:00 +24°C° 0.1 mm 3 mps 734 mmHg 84%
    17:00 +22°C° 0.1 mm 3 mps 734 mmHg 84%
    18:00 +22°C° 0.1 mm 3 mps 734 mmHg 87%
    19:00 +21°C° 0.1 mm 3 mps 734 mmHg 90%
    20:00 +21°C° 0.1 mm 2 mps 734 mmHg 92%
    21:00 +21°C° 0.1 mm 2 mps 734 mmHg 94%
    22:00 +20°C° 0.1 mm 2 mps 734 mmHg 95%
    23:00 +20°C° 0.1 mm 2 mps 734 mmHg 97%

    23 July, Monday

    Time Temperature Precipitation Wind Pressure Humidity
    00:00 +20°C° 0.1 mm 2 mps 734 mmHg 97%
    01:00 +20°C° 0.1 mm 2 mps 733 mmHg 98%
    02:00 +20°C° 0.1 mm 2 mps 733 mmHg 98%
    03:00 +20°C° 0.1 mm 2 mps 733 mmHg 98%
    04:00 +20°C° 0.1 mm 2 mps 733 mmHg 97%
    05:00 +20°C° 0.1 mm 2 mps 733 mmHg 97%
    06:00 +20°C° 0.1 mm 2 mps 734 mmHg 96%
    07:00 +20°C° 0.1 mm 2 mps 734 mmHg 95%
    08:00 +20°C° 0.1 mm 3 mps 734 mmHg 94%
    09:00 +20°C° 0.1 mm 2 mps 734 mmHg 93%
    10:00 +21°C° 0.1 mm 2 mps 734 mmHg 91%
    11:00 +21°C° 0.1 mm 2 mps 734 mmHg 90%
    12:00 +23°C° 0.1 mm 2 mps 734 mmHg 88%
    13:00 +23°C° 0.1 mm 2 mps 734 mmHg 86%
    14:00 +23°C° 0.1 mm 2 mps 734 mmHg 84%
    15:00 +24°C° 0 mm 2 mps 734 mmHg 84%
    16:00 +24°C° 0 mm 2 mps 734 mmHg 84%
    17:00 +24°C° 0 mm 2 mps 734 mmHg 84%
    18:00 +23°C° 0 mm 2 mps 735 mmHg 87%
    19:00 +21°C° 0 mm 2 mps 735 mmHg 91%
    20:00 +21°C° 0 mm 2 mps 735 mmHg 94%
    21:00 +20°C° 0.2 mm 2 mps 735 mmHg 95%
    22:00 +20°C° 0.2 mm 2 mps 735 mmHg 96%
    23:00 +19°C° 0.2 mm 2 mps 735 mmHg 98%

    24 July, Tuesday

    Time Temperature Precipitation Wind Pressure Humidity
    00:00 +19°C° 0.2 mm 2 mps 735 mmHg 98%
    01:00 +19°C° 0.2 mm 2 mps 735 mmHg 98%
    02:00 +19°C° 0.2 mm 2 mps 735 mmHg 98%
    03:00 +19°C° 0.1 mm 2 mps 735 mmHg 98%
    04:00 +19°C° 0.1 mm 2 mps 735 mmHg 98%
    05:00 +19°C° 0.1 mm 2 mps 735 mmHg 98%
    06:00 +19°C° 0.3 mm 2 mps 735 mmHg 97%
    07:00 +21°C° 0.3 mm 1 mps 736 mmHg 96%
    08:00 +22°C° 0.3 mm 1 mps 736 mmHg 95%
    09:00 +22°C° 0.1 mm 1 mps 736 mmHg 93%
    10:00 +22°C° 0.1 mm 1 mps 736 mmHg 92%
    11:00 +23°C° 0.1 mm 1 mps 736 mmHg 90%
    12:00 +24°C° 0.5 mm 2 mps 736 mmHg 86%
    13:00 +25°C° 0.5 mm 2 mps 736 mmHg 82%
    14:00 +26°C° 0.5 mm 2 mps 736 mmHg 77%
    15:00 +26°C° 0.5 mm 2 mps 736 mmHg 77%
    16:00 +26°C° 0.5 mm 2 mps 737 mmHg 78%
    17:00 +26°C° 0.5 mm 1 mps 737 mmHg 78%
    18:00 +25°C° 0.6 mm 1 mps 737 mmHg 83%
    19:00 +23°C° 0.6 mm 2 mps 737 mmHg 88%
    20:00 +21°C° 0.6 mm 2 mps 737 mmHg 94%
    21:00 +21°C° 0 mm 2 mps 737 mmHg 95%
    22:00 +20°C° 0 mm 2 mps 737 mmHg 96%
    23:00 +19°C° 0 mm 2 mps 737 mmHg 98%

    25 July, Wednesday

    Time Temperature Precipitation Wind Pressure Humidity
    00:00 +19°C° 0 mm 2 mps 738 mmHg 98%
    01:00 +19°C° 0 mm 2 mps 738 mmHg 98%
    02:00 +18°C° 0 mm 2 mps 738 mmHg 98%
    03:00 +18°C° 0 mm 2 mps 738 mmHg 98%
    04:00 +18°C° 0 mm 2 mps 738 mmHg 98%
    05:00 +18°C° 0 mm 2 mps 739 mmHg 98%
    06:00 +20°C° 0 mm 2 mps 739 mmHg 94%
    07:00 +21°C° 0 mm 3 mps 739 mmHg 90%
    08:00 +22°C° 0 mm 3 mps 739 mmHg 86%
    09:00 +25°C° 0.1 mm 3 mps 739 mmHg 78%
    10:00 +26°C° 0.1 mm 3 mps 740 mmHg 71%
    11:00 +28°C° 0.1 mm 3 mps 740 mmHg 64%
    12:00 +27°C° 0.5 mm 3 mps 740 mmHg 69%
    13:00 +26°C° 0.5 mm 4 mps 740 mmHg 75%
    14:00 +25°C° 0.5 mm 4 mps 740 mmHg 80%
    15:00 +24°C° 0.3 mm 3 mps 740 mmHg 82%
    16:00 +24°C° 0.3 mm 3 mps 740 mmHg 83%
    17:00 +22°C° 0.3 mm 3 mps 740 mmHg 85%
    18:00 +21°C° 0 mm 2 mps 740 mmHg 87%
    19:00 +20°C° 0 mm 2 mps 740 mmHg 88%
    20:00 +20°C° 0 mm 1 mps 741 mmHg 90%
    21:00 +20°C° 0 mm 1 mps 741 mmHg 91%
    22:00 +19°C° 0 mm 1 mps 741 mmHg 91%
    23:00 +18°C° 0 mm 1 mps 741 mmHg 92%
    Show more